TimeEDT,TemperatureF,Dew PointF,Humidity,Sea Level PressureIn,VisibilityMPH,Wind Direction,Wind SpeedMPH,Gust SpeedMPH,PrecipitationIn,Events,Conditions,WindDirDegrees,DateUTC
12:54 AM,57.9,53.1,84,30.09,10.0,ESE,4.6,-,N/A,,Partly Cloudy,120,2012-10-26 04:54:00
1:54 AM,57.9,53.1,84,30.10,10.0,ESE,4.6,-,N/A,,Scattered Clouds,120,2012-10-26 05:54:00
2:10 AM,57.2,51.8,82,30.11,10.0,East,8.1,-,N/A,,Mostly Cloudy,100,2012-10-26 06:10:00
2:54 AM,59.0,54.0,83,30.10,10.0,East,9.2,-,N/A,,Scattered Clouds,100,2012-10-26 06:54:00
3:54 AM,57.9,53.1,84,30.09,10.0,ESE,8.1,-,N/A,,Partly Cloudy,110,2012-10-26 07:54:00
4:54 AM,57.9,53.1,84,30.09,10.0,ESE,4.6,-,N/A,,Scattered Clouds,120,2012-10-26 08:54:00
5:54 AM,55.0,52.0,89,30.10,10.0,East,4.6,-,N/A,,Partly Cloudy,90,2012-10-26 09:54:00
6:54 AM,55.9,52.0,87,30.09,9.0,East,4.6,-,N/A,,Partly Cloudy,80,2012-10-26 10:54:00
7:54 AM,54.0,51.1,90,30.10,6.0,East,6.9,-,N/A,,Scattered Clouds,100,2012-10-26 11:54:00
8:54 AM,60.1,55.0,83,30.10,7.0,East,8.1,-,N/A,,Clear,80,2012-10-26 12:54:00
9:54 AM,64.9,55.9,73,30.11,10.0,ESE,4.6,-,N/A,,Clear,120,2012-10-26 13:54:00
10:54 AM,68.0,55.9,65,30.10,10.0,South,11.5,-,N/A,,Clear,190,2012-10-26 14:54:00
11:54 AM,70.0,55.9,61,30.09,10.0,South,10.4,-,N/A,,Scattered Clouds,180,2012-10-26 15:54:00
12:54 PM,71.1,55.9,59,30.07,10.0,South,8.1,16.1,N/A,,Scattered Clouds,180,2012-10-26 16:54:00
1:54 PM,73.0,57.0,57,30.06,10.0,SSW,9.2,-,N/A,,Scattered Clouds,200,2012-10-26 17:54:00
2:54 PM,73.0,57.0,57,30.05,10.0,SE,5.8,-,N/A,,Mostly Cloudy,140,2012-10-26 18:54:00
3:54 PM,73.0,57.0,57,30.04,10.0,SSE,8.1,-,N/A,,Mostly Cloudy,150,2012-10-26 19:54:00
4:54 PM,71.1,55.9,59,30.03,10.0,SSE,10.4,-,N/A,,Mostly Cloudy,160,2012-10-26 20:54:00
5:54 PM,66.9,55.0,66,30.04,10.0,SSE,12.7,-,N/A,,Overcast,150,2012-10-26 21:54:00
6:54 PM,64.9,54.0,68,30.05,10.0,SE,8.1,-,N/A,,Overcast,140,2012-10-26 22:54:00
7:54 PM,62.1,54.0,75,30.07,9.0,ESE,3.5,-,N/A,,Mostly Cloudy,120,2012-10-26 23:54:00
8:54 PM,61.0,54.0,78,30.09,8.0,Calm,Calm,-,N/A,,Overcast,0,2012-10-27 00:54:00
9:54 PM,61.0,55.0,81,30.09,8.0,Calm,Calm,-,N/A,,Overcast,0,2012-10-27 01:54:00
10:54 PM,61.0,55.0,81,30.09,8.0,Calm,Calm,-,N/A,,Overcast,0,2012-10-27 02:54:00
11:04 PM,60.8,55.4,82,30.10,8.0,Calm,Calm,-,N/A,,Overcast,0,2012-10-27 03:04:00
11:38 PM,60.8,53.6,77,30.11,10.0,West,11.5,-,N/A,,Overcast,280,2012-10-27 03:38:00
11:54 PM,59.0,52.0,78,30.10,10.0,WNW,11.5,-,N/A,,Overcast,290,2012-10-27 03:54:00